Terug naar catalogus

STARLINK-32551

ActiefCommunicatieVLEO
NORAD 62166·PAYLOAD·🇺🇸 United States

Gelanceerd Nov 30, 2024 vanaf Vandenberg Space Force Base

Loading…

Volgende Passages (komende 24 uur)

TLE

VersSource: CelesTrak SupGP

Epoch: Sep 15, 2026, 02:32 UTC

1 62166C 24225D   26258.10604167 -.00037948  00000+0 -31811-2 0  2580
2 62166  70.0014  46.8015 0002622 270.1041 301.3908 14.98339733    11

Volg STARLINK-32551 in realtime met AllMySat

Download on the App Store